Location: Newark
(49.6833°N, 1.9000°W)
Time: 01:53:43
(UTC+00:00)

Envisat - Visible Passes

Search period start: 20 September 2019 00:00
Search period end: 30 September 2019 00:00
Orbit: 764 x 766 km, 98.1° (Epoch: 19 September)

Date Brightness Start Highest point End Pass type
(mag) Time Alt. Az. Time Alt. Az. Time Alt. Az.
20 Sep 5.8 19:27:10 10° SW 19:30:54 21° W 19:34:41 10° NW visible
21 Sep 4.5 18:49:03 10° SSW 18:53:48 40° W 18:58:37 10° NNW visible
22 Sep 6.2 19:54:42 10° WSW 19:56:47 12° W 19:58:52 10° WNW visible
23 Sep 5.4 19:15:22 10° SSW 19:19:32 25° W 19:23:43 10° NW visible
24 Sep 4.1 18:37:35 10° S 18:42:30 50° W 18:47:27 10° NNW visible
25 Sep 6.0 19:42:24 10° WSW 19:45:21 15° W 19:48:20 10° NW visible
26 Sep 5.1 19:03:43 10° SSW 19:08:11 31° W 19:12:40 10° NNW visible
27 Sep 3.7 18:26:11 10° S 18:31:12 61° W 18:36:16 10° NNW visible
28 Sep 5.8 19:30:23 10° SW 19:33:57 19° W 19:37:32 10° NW visible
29 Sep 4.7 18:52:08 10° SSW 18:56:50 37° W 19:01:34 10° NNW visible
